Weather in Orhei

Moldova     47°22′29″N   28°49′20″E
temp.,
°C
wind,
m/s
gust,
m/s
humid.,
%
clouds,
%
prec.,
mm/h
press.,
hPa
HPBL,
m
20 may, fri
fri2000:00+13wnw22655 0.0 102419
03:00+12wnw226962 0.0 102413
06:00+11wnw227467 0.0 102313
09:00+17wnw235876 0.0 1024393
12:00+22wnw343983 0.0 10221279
15:00+24w443496 0.0 10201581
18:00+24wsw3540100 0.0 10191495
21:00+19sw1152100 0.0 101811
21 may, sat
sat2100:00+18s225088 0.0 101711
03:00+15nw22557 0.0 101614
06:00+15wnw225851 0.0 101511
09:00+21wsw2348100 0.0 1014278
12:00+26wsw5639100 0.0 1012998
15:00+27w673745 0.0 10111542
18:00+23nw111060100 0.3 1010967
21:00+18nw398493 2.4 1012459
22 may, sun
sun2200:00+17wnw377672 0.0 1012232
03:00+15wnw497098 0.0 1011276
06:00+15nw5106093 0.0 1010452
09:00+17nw813553 0.0 10091352
12:00+19nw10144793 0.0 10082367
15:00+18nw10154792 0.0 10082196
18:00+17nnw913518 0.0 10081746
21:00+13nnw611647 0.0 1009839
23 may, mon
mon2300:00+12nw6126734 0.0 1009823
03:00+10nw5137384 0.0 1009679
06:00+11nw51275100 0.0 1009951
09:00+11nw61082100 0.1 1010655
12:00+11n7881100 0.3 1011787
15:00+15n575896 0.3 10111611
18:00+14ne675321 0.1 10121219
21:00+10n226139 0.1 101419
24 may, tue
tue2400:00+9nnw226565 0.0 101511
03:00+8nnw22775 0.0 101614
06:00+7nnw11825 0.0 101711
09:00+13nne12572 0.0 1017516
12:00+17ne224045 0.0 10172119
15:00+19nne113525 0.0 10172318
18:00+19ne113529 0.0 10172207
21:00+14ese34525 0.0 101854